Regional Weather Roundup
Issued by NWS

Home | Current Version | Previous Version | Graphics & Text | Print | Product List | Glossary On
Versions: 1 2 3 4 5 6 7 8 9 10 11 12 13 14 15 16 17 18 19 20 21 22 23 24 25 26 27 28 29 30 31 32 33 34 35 36 37 38 39 40 41 42 43 44 45 46 47 48 49 50
413
ASUS44 KJAN 151410
RWRMS

MISSISSIPPI HOURLY WEATHER ROUNDUP
NATIONAL WEATHER SERVICE JACKSON MS
900 AM CDT MON SEP 15 2014

NOTE: "FAIR: INDICATES FEW OR NO CLOUDS BELOW 12,000 FEET WITH NO
SIGNIFICANT WEATHER AND/OR OBSTRUCTIONS TO VISIBILITY.

MSZ001>002-007>008-010>013-018>021-025>028-034>036-151500-
NORTHWEST MISSISSIPPI

CITY           SKY/WX    TMP DP  RH WIND       PRES   REMARKS
CLARKSDALE     FAIR      70  63  78 CALM      30.18R
CLEVELAND      FAIR      70  65  84 CALM      30.17R
GREENWOOD      PTSUNNY   72  64  76 NE3       30.16R
GREENVILLE     PTSUNNY   71  63  75 N3        30.16R
GRENADA        FAIR      72  63  73 E3        30.16S
OLIVE BRANCH   PTSUNNY   66  64  94 CALM      30.18S
OXFORD         FAIR      68  61  77 CALM      30.19R
TUNICA         CLOUDY    68  63  83 CALM      30.18S
$$

MSZ003>006-009-014>017-022>024-029>033-037>039-151500-
NORTHEAST MISSISSIPPI

CITY           SKY/WX    TMP DP  RH WIND       PRES   REMARKS
COLUMBUS AFB   MOSUNNY   71  65  80 CALM      30.15S
CORINTH        FAIR      66  61  82 CALM      30.17S
GOLDN TRIANGLE MOSUNNY   72  64  78 CALM      30.15S
STARKVILLE     FAIR      72  64  78 CALM      30.15S
TUPELO         MOSUNNY   71  62  73 NE3       30.16R
$$

MSZ040-058-151500-
CENTRAL MISSISSIPPI

CITY           SKY/WX    TMP DP  RH WIND       PRES   REMARKS
JACKSON INTL   MOSUNNY   78  67  68 CALM      30.14R
JACKSON HAWKNS SUNNY     78  66  66 CALM      30.14S
MERIDIAN KEY   SUNNY     76  66  71 CALM      30.14R
MERIDIAN NAS   MOSUNNY   75  67  76 E3        30.15R
RAYMOND        FAIR      77  72  83 CALM      30.14S
VICKSBURG      MOSUNNY   74  67  78 CALM      30.15R
$$

MSZ059>079-151500-
SOUTH MISSISSIPPI

CITY           SKY/WX    TMP DP  RH WIND       PRES   REMARKS
BROOKHAVEN     FAIR      77  72  83 CALM      30.15S
HATTIESBURG    SUNNY     79  72  79 CALM      30.12F
MCCOMB         SUNNY     78  70  76 E5        30.13R
NATCHEZ        SUNNY     75  70  83 E3        30.14R
PINE BELT      SUNNY    N/A N/A N/A NE3       30.14S
$$

MSZ080>082-151500-
COASTAL MISSISSIPPI

CITY           SKY/WX    TMP DP  RH WIND       PRES   REMARKS
BAY ST LOUIS   MOSUNNY   82  73  74 VRB5      30.11R
BILOXI         SUNNY     83  75  76 NE8       30.10R HX  90
PASCAGOULA     SUNNY     82  76  81 E5        30.10S
GULFPORT       SUNNY     83  75  77 NE8       30.10R HX  90
$$



USA.gov is the U.S. government's official web portal to all federal, state and local government web resources and services.